Wind_Speed
48 45 45 34 33 32 39 41 36 39 39 39 39 39 34 34 34 33 33 29 29 29 29 32 33 32 30 30 32 31 34 32
50 51 49 44 39 32 31 43 41 42 43 39 40 42 38 36 34 34 35 33 33 33 30 31 32 30 30 26 27 26 28 30
55 48 44 47 43 43 37 36 45 45 45 40 40 42 42 40 38 34 36 38 37 36 33 30 27 28 27 26 27 28 30 28
58 56 49 45 40 46 43 39 43 48 46 43 41 45 41 42 41 37 35 39 40 41 37 29 29 27 22 21 24 24 26 30
65 61 52 49 42 41 39 40 42 50 49 43 46 46 42 46 42 41 41 36 41 42 43 35 35 34 29 26 29 31 32 35
59 64 60 56 45 43 48 45 43 48 51 47 49 47 43 46 47 44 45 36 37 40 43 43 41 38 37 34 36 37 40 39
61 65 66 62 56 47 45 49 51 53 50 50 50 49 46 48 50 48 45 44 39 41 44 43 45 46 45 44 43 41 44 45
69 69 73 67 64 56 51 49 53 52 49 53 54 49 47 48 51 50 47 48 43 45 44 44 48 51 52 51 50 48 51 48
71 73 75 67 66 62 55 53 56 55 54 59 57 53 52 51 51 52 49 51 48 45 46 46 47 49 53 56 55 54 58 56
72 75 68 63 68 66 64 63 57 58 53 55 57 60 56 55 53 52 52 50 50 49 49 49 49 50 52 52 50 54 58 65
84 83 78 67 68 65 60 58 61 61 59 55 55 58 53 56 55 52 53 52 53 52 51 49 51 50 51 51 53 53 60 66
78 78 81 70 68 64 59 57 56 58 60 57 55 54 56 56 54 55 56 55 55 55 53 52 55 55 54 52 54 58 62 66
78 78 72 74 73 67 64 61 56 59 60 58 58 57 58 53 56 59 59 60 58 57 56 56 58 60 57 57 57 61 63 70
83 79 78 75 73 69 67 64 61 60 60 61 57 58 57 57 61 60 60 62 61 59 59 61 61 62 61 61 62 66 69 70
84 84 78 71 72 72 72 69 65 59 59 61 55 54 54 56 57 56 56 53 57 59 62 62 62 66 63 64 67 69 69 72
87 89 84 77 73 70 75 70 64 59 57 60 61 56 54 56 55 55 55 57 57 59 64 63 66 70 68 68 70 71 71 75
94 95 90 82 75 74 74 71 65 63 58 59 60 58 61 60 59 62 62 58 56 59 62 64 71 71 71 71 71 73 76 79
105 101 97 90 82 79 76 73 69 67 61 61 62 62 61 62 61 62 63 63 62 58 61 67 73 70 72 73 75 79 81 83
118 112 107 99 95 88 83 81 72 67 66 65 62 62 63 63 60 63 63 62 59 59 66 71 70 71 72 74 78 79 81 86
Wind_Direction
293 295 298 302 293 300 306 311 316 317 322 325 330 326 326 322 309 296 294 301 304 302 305 297 286 285 286 290 294 296 300 300
289 290 289 292 287 293 297 304 313 311 313 319 323 325 324 322 321 303 297 296 305 303 305 305 297 289 289 299 301 302 300 303
290 283 284 286 286 291 292 296 305 307 304 309 314 318 319 320 319 317 303 293 295 298 300 304 295 298 295 302 305 309 308 300
286 291 284 277 282 286 290 290 298 300 304 301 306 312 314 317 318 313 308 289 288 293 295 297 297 303 302 307 310 313 311 314
277 282 283 286 283 282 287 288 289 295 302 296 300 306 311 313 313 313 311 298 285 293 290 293 292 297 297 296 302 307 303 308
275 281 283 284 287 284 287 288 284 289 295 296 295 297 306 309 307 310 313 300 288 291 289 293 290 287 294 292 296 304 306 302
279 283 284 284 287 285 280 285 283 285 289 292 290 292 300 303 305 305 311 307 291 289 292 290 290 290 290 290 292 299 302 302
271 277 277 281 286 288 286 280 281 285 283 287 291 289 296 298 301 303 306 305 299 290 293 287 289 289 290 296 298 302 300 299
268 269 273 278 280 284 287 284 279 281 281 285 287 288 292 294 297 301 302 304 303 294 292 289 294 291 288 292 299 299 296 296
263 266 268 273 281 280 282 285 284 283 284 282 284 286 286 289 292 298 298 299 302 299 294 287 291 293 295 297 299 305 303 301
269 267 268 274 277 275 282 284 283 282 285 283 282 283 284 285 288 293 295 296 298 299 296 288 290 292 296 299 300 300 298 302
267 264 263 268 273 271 278 284 283 284 285 285 285 282 281 285 285 290 292 293 293 296 293 292 290 293 295 295 297 298 296 299
260 264 266 269 270 271 271 279 281 286 287 286 284 282 281 281 283 286 288 290 291 292 290 289 290 293 292 293 292 295 296 301
259 261 263 267 267 268 270 273 275 278 282 285 283 278 275 278 279 282 284 287 290 290 288 289 293 295 291 289 293 294 296 302
262 263 263 265 264 266 268 270 271 277 278 282 279 275 274 276 281 284 284 285 287 289 287 291 292 293 289 288 293 296 298 300
261 263 262 265 264 266 266 267 270 273 273 280 280 275 277 279 283 282 282 290 290 286 287 290 291 292 289 291 295 298 298 298
260 263 263 263 262 262 264 267 271 273 273 276 278 277 278 279 282 282 282 286 287 287 287 289 290 291 289 293 296 297 296 299
259 262 264 263 260 259 263 265 270 271 272 272 275 277 279 278 279 280 281 284 288 287 287 289 289 289 289 295 295 296 298 301
258 260 259 260 260 260 263 265 265 265 269 270 271 274 278 278 280 281 282 285 291 288 287 286 284 287 292 295 296 296 296 298
Height
10813 10816 10815 10829 10826 10819 10808 10807 10810 10806 10803 10799 10794 10791 10788 10782 10779 10777 10775 10772 10770 10766 10764 10760 10755 10753 10751 10749 10747 10746 10743 10741
10804 10809 10809 10814 10815 10817 10812 10799 10801 10800 10796 10794 10790 10786 10782 10778 10774 10770 10767 10765 10762 10758 10757 10755 10751 10747 10745 10743 10741 10740 10736 10734
10792 10796 10800 10804 10807 10805 10806 10799 10794 10794 10790 10788 10785 10781 10776 10773 10769 10765 10761 10760 10757 10753 10751 10749 10744 10741 10739 10737 10734 10733 10730 10727
10783 10783 10787 10792 10799 10797 10795 10792 10787 10784 10783 10781 10778 10775 10771 10766 10764 10760 10756 10754 10751 10747 10745 10743 10738 10736 10733 10730 10727 10726 10724 10720
10774 10775 10775 10775 10786 10786 10787 10785 10778 10774 10773 10773 10770 10767 10764 10759 10757 10754 10750 10747 10745 10741 10737 10737 10731 10728 10724 10721 10719 10717 10714 10710
10758 10758 10765 10764 10771 10775 10773 10774 10770 10765 10764 10764 10761 10759 10756 10751 10748 10746 10742 10738 10736 10734 10729 10727 10724 10720 10716 10712 10709 10706 10703 10698
10744 10743 10741 10751 10755 10764 10766 10762 10760 10757 10756 10754 10752 10751 10749 10744 10739 10737 10734 10729 10726 10723 10721 10717 10714 10711 10709 10705 10701 10697 10692 10687
10740 10736 10726 10739 10739 10746 10753 10754 10748 10747 10748 10744 10742 10742 10740 10735 10731 10727 10725 10720 10717 10713 10711 10708 10704 10700 10696 10693 10690 10686 10681 10676
10727 10725 10717 10726 10730 10731 10734 10736 10736 10737 10739 10735 10730 10730 10730 10725 10722 10718 10714 10710 10707 10704 10700 10696 10692 10689 10685 10682 10679 10674 10669 10664
10708 10707 10708 10717 10716 10719 10719 10718 10721 10721 10727 10722 10720 10716 10720 10715 10712 10708 10703 10700 10697 10694 10690 10686 10681 10677 10673 10670 10667 10662 10657 10651
10695 10695 10695 10706 10705 10705 10706 10707 10707 10707 10709 10709 10708 10705 10706 10703 10701 10698 10693 10689 10685 10683 10679 10675 10671 10666 10662 10659 10654 10649 10644 10637
10678 10676 10676 10692 10690 10694 10693 10695 10694 10694 10695 10695 10694 10692 10692 10690 10687 10683 10679 10677 10673 10670 10667 10663 10658 10654 10649 10645 10641 10636 10629 10622
10657 10656 10667 10672 10673 10678 10677 10678 10677 10677 10678 10680 10681 10679 10677 10676 10673 10670 10668 10664 10661 10658 10654 10649 10645 10640 10636 10632 10628 10621 10615 10607
10634 10640 10650 10655 10658 10659 10659 10661 10661 10661 10662 10664 10665 10665 10665 10663 10660 10660 10656 10652 10648 10645 10641 10637 10632 10628 10623 10618 10613 10607 10600 10592
10614 10618 10631 10640 10643 10644 10642 10644 10646 10648 10648 10650 10651 10650 10650 10649 10645 10644 10642 10639 10636 10631 10627 10623 10619 10614 10608 10603 10598 10591 10583 10576
10592 10594 10607 10619 10624 10628 10623 10626 10630 10633 10633 10631 10634 10634 10634 10633 10630 10629 10627 10625 10622 10617 10613 10609 10605 10598 10593 10588 10583 10575 10567 10559
10567 10569 10581 10598 10604 10605 10606 10608 10612 10617 10617 10616 10617 10618 10618 10616 10614 10612 10611 10609 10606 10602 10598 10595 10589 10583 10576 10572 10566 10558 10551 10543
10552 10548 10552 10570 10583 10585 10591 10592 10596 10598 10601 10600 10601 10600 10600 10599 10598 10597 10595 10594 10590 10586 10584 10579 10573 10566 10560 10556 10549 10542 10534 10526
10522 10529 10530 10541 10552 10565 10573 10578 10582 10583 10585 10586 10584 10583 10582 10582 10583 10581 10579 10576 10574 10570 10568 10563 10556 10549 10545 10540 10533 10525 10517 10509